Terug naar catalogus

STARLINK-2517

ActiefCommunicatieVLEO
NORAD 48309·PAYLOAD·🇺🇸 United States

Gelanceerd Apr 29, 2021 vanaf Cape Canaveral Space Force Station

Loading…

Volgende Passages (komende 24 uur)

TLE

VersSource: CelesTrak SupGP

Epoch: Sep 15, 2026, 01:55 UTC

1 48309C 21036AK  26258.08034722  .00015177  00000+0  48802-3 0  2588
2 48309  53.1582 287.5151 0001411  87.9242 318.2556 15.31696497    10

Volg STARLINK-2517 in realtime met AllMySat

Download on the App Store